Regional Weather Roundup
Issued by NWS

Home | Current Version | Previous Version | Text Only | Print | Product List | Glossary Off
Versions: 1 2 3 4 5 6 7 8 9 10 11 12 13 14 15 16 17 18 19 20 21 22 23 24 25 26 27 28 29 30 31 32 33 34 35 36 37 38 39 40 41 42 43 44 45 46 47 48 49 50

790
ASUS43 KBIS 261002
RWRND

NORTH DAKOTA REGIONAL WEATHER ROUNDUP
NATIONAL WEATHER SERVICE BISMARCK ND
500 AM CDT MON SEP 26 2016

NOTE: "FAIR" INDICATES FEW OR NO CLOUDS BELOW 12,000 FEET WITH NO
SIGNIFICANT WEATHER AND/OR OBSTRUCTIONS TO VISIBILITY.


NDZ001>003-009>011-017-261100-
NORTHWEST NORTH DAKOTA

CITY           SKY/WX    TMP DP  RH WIND       PRES   REMARKS
WILLISTON      CLEAR     39  34  82 E5        30.19F
MINOT          CLEAR     47  34  60 W14       30.10F
MINOT AFB      CLEAR     44  35  69 W13       30.09S
$$

NDZ018>021-031>035-040>046-261100-
SOUTHWEST NORTH DAKOTA

CITY           SKY/WX    TMP DP  RH WIND       PRES   REMARKS
BISMARCK       CLEAR     40  34  79 W7        30.16S
DICKINSON      CLEAR     40  34  79 NW5       30.19S
GARRISON         N/A     43  37  79 W12       30.14S
HETTINGER ARPT CLEAR     37  35  92 NW3       30.23S
$$

NDZ004>008-012>016-024-026-027-054-261100-
NORTHEAST NORTH DAKOTA

CITY           SKY/WX    TMP DP  RH WIND       PRES   REMARKS
GRAND FORKS    CLEAR     50  37  61 NW15      29.92S
GRND FRKS AFB  CLEAR     50  36  59 NW16G23   29.94R
DEVILS LAKE    CLEAR     47  37  68 W16       30.02S
$$

NDZ022-023-025-028>030-036>039-047>053-261100-
SOUTHEAST NORTH DAKOTA

CITY           SKY/WX    TMP DP  RH WIND       PRES   REMARKS
FARGO          CLEAR     49  36  61 W15       29.96S
JAMESTOWN      CLEAR     45  37  73 W14       30.06R
$$





USA.gov is the U.S. government's official web portal to all federal, state and local government web resources and services.